Location: Niles Junction
(37.5763°N, 121.9714°W)
Time: 06:07:13
(UTC+00:00)

Cosmos 1023 Rocket - Pass Details

Date: 29 October 2020
Orbit: 736 x 773 km, 74.1° (Epoch: 27 November)

Event Time Altitude Azimuth Distance (km) Brightness Sun altitude
Rises 13:34:22 0° 200° (SSW) 3,159 7.6 -11.7°
Reaches altitude 10° 13:36:42 10° 202° (SSW) 2,237 6.8 -11.2°
Maximum altitude 13:41:46 77° 288° (WNW) 760 4.4 -10.2°
Drops below altitude 10° 13:46:51 10° 15° (NNE) 2,247 7.0 -9.2°
Sets 13:49:13 0° 17° (NNE) 3,175 7.8 -8.8°
